SCP
0 0 0 0 0 0 0 0 0 0 0 0 0 0 0 0 0 0 0 0 0 0 0 0 0 0 0 0 0 0 0 0 0 0 0 0 0 0 0 0 0 0 0 0 0 0 0 0 0 0 0 0 0 0
0 0 0 0 0 0 0 0 0 0 0 0 0 0 0 0 0 0 0 0 0 0 0 0 0 0 0 0 0 0 0 0 0 0 0 0 0 0 0 0 0 0 0 0 0 0 0 0 0 0 0 0 0 0
0 0 0 0 0 0 0 0 0 0 0 0 0 0 0 0 0 0 0 0 0 0 0 0 0 0 0 0 0 0 0 0 0 0 0 0 0 0 0 0 0 0 0 0 0 0 0 0 0 0 0 0 0 0
0 0 0 0 0 0 0 0 0 0 0 0 0 0 0 0 0 0 0 0 0 0 0 0 0 0 0 0 0 0 0 0 0 0 0 0 0 0 0 0 0 0 0 0 0 0 0 0 0 0 0 0 0 0
0 0 0 0 0 0 0 0 0 0 0 0 0 0 0 0 0 0 0 0 0 0 0 0 0 0 0 0 0 0 0 0 0 0 0 0 0 0 0 0 0 0 0 0 0 0 0 0 0 0 0 0 0 0
0 0 0 0 0 0 0 0 0 0 0 0 0 0 -0 0 0 0 0 -0 0 0 0 0 0 0 0 0 0 0 0 0 0 0 0 0 0 0 0 0 0 0 0 0 0 0 0 0 0 0 0 0 0 0
0 0 0 0 0 0 0 0 0 0 0 0 0 0 0 0 0 0 0 0 0 0 0 0 0 0 0 0 0 0 0 0 0 0 0 0 0 0 0 0 0 0 0 0 0 0 0 0 0 0 0 0 0 0
0 0 0 0 0 0 0 0 0 0 0 0 0 0 0 0 0 0 0 0 0 0 0 0 0 0 0 0 0 0 0 0 0 0 0 0 0 0 0 0 0 0 0 0 0 0 0 0 0 0 0 0 0 0
0 0 0 0 0 0 0 0 0 0 0 0 0 -0 0 0 0 0 -0 0 0 0 0 0 0 0 0 0 0 0 0 0 0 0 0 0 0 0 0 0 0 0 0 0 0 0 0 0 0 0 0 0 0 0
0 0 0 0 0 0 0 0 0 0 0 0 0 0 0 0 0 0 0 0 0 0 0 0 0 0 0 0 0 0 0 0 0 0 0 0 0 0 0 0 0 0 0 0 0 0 0 0 0 0 0 0 0 0
-0 0 0 0 0 0 0 0 0 0 0 0 0 0 0 0 0 0 0 0 0 0 0 0 0 0 0 0 0 0 0 0 0 0 0 0 0 0 0 0 0 0 0 0 0 0 0 0 0 0 0 0 0 0
0 -0 0 0 0 0 0 0 0 0 0 0 0 0 0 0 0 0 0 0 0 0 0 0 0 0 0 0 0 0 0 0 0 0 0 0 0 0 0 0 0 0 0 0 0 0 0 0 0 0 0 0 0 0
-0 0 0 0 0 0 0 0 0 0 0 0 0 0 0 0 0 0 0 0 0 0 0 0 0 0 0 0 0 0 0 0 0 0 0 0 0 0 0 0 0 0 0 0 0 0 0 0 0 0 0 0 -0 0
0 0 0 0 0 0 0 0 0 0 0 0 0 0 0 0 0 0 0 0 0 0 0 0 0 0 0 0 0 0 0 0 0 0 0 0 0 0 0 0 0 0 0 0 0 0 0 0 0 0 0 0 0 0
0 0 0 0 0 0 0 0 0 0 0 0 0 0 0 0 0 0 0 0 0 0 0 0 0 0 0 0 0 0 0 0 0 0 0 0 0 0 0 0 0 0 0 0 0 0 0 0 -0 -0 0 0 0 0
-0 -0 0 0 0 0 0 0 0 0 0 0 0 0 0 0 0 0 0 0 0 0 0 0 0 0 0 0 0 0 -0 0 0 0 0 0 0 0 0 0 0 0 0 0 0 0 0 0 -0 0 0 0 0 -0
0 0 0 0 0 0 0 0 0 0 0 0 0 0 0 0 0 0 0 0 0 0 0 0 0 0 0 0 0 0 0 0 0 0 0 0 0 0 0 0 0 0 0 0 0 0 0 0 0 0 0 -0 -0 0
0 0 -0 -0 0 0 0 0 0 0 0 0 0 0 0 0 0 0 0 0 0 0 0 0 0 0 0 0 0 0 0 0 0 0 0 0 0 0 0 0 0 0 0 0 0 0 0 0 0 -0 -0 0 0 -0
0 0 0 0 0 0 0 0 0 0 0 0 0 0 0 0 0 0 0 0 0 0 0 0 0 0 0 0 0 0 0 0 0 0 0 0 0 0 0 0 0 0 0 0 0 0 0 0 0 0 0 -0 -0 -0
0 0 0 0 0 0 0 0 0 0 0 0 0 0 0 0 0 0 0 0 0 0 0 0 0 0 0 0 0 0 0 0 0 0 0 0 0 0 0 0 0 0 0 0 0 0 0 -0 -0 -0 0 0 0 -0
0 0 0 0 0 0 0 0 0 0 0 0 0 0 0 0 0 0 0 0 0 0 0 0 0 0 0 0 0 0 0 0 0 0 0 0 0 0 -0 -0 0 0 0 -0 0 0 0 0 0 0 0 0 0 -0
0 0 0 0 0 0 0 0 0 0 0 0 0 0 0 0 0 0 0 0 0 0 0 0 0 0 0 0 0 0 0 0 0 0 0 -0 0 0 0 0 0 -0 -0 -0 -0 -0 -0 -0 -0 0 0 0 -0 -0
0 0 0 0 0 0 0 0 0 0 0 0 0 0 0 0 0 0 0 0 0 0 0 0 0 0 0 0 0 0 0 0 0 0 0 0 0 -0 0 0 0 0 -0 -0 -0 -0 -0 -0 -0 0 0 0 -0 -0
0 0 0 0 0 0 0 0 0 0 0 0 0 0 0 0 0 0 0 0 0 0 0 0 0 0 0 0 -0 -0 0 0 0 0 -0 -0 -0 0 -0 -0 -0 -0 -0 -0 0 -0 -0 -0 -0 -0 -0 0 0 0
0 0 0 0 0 0 0 0 0 0 0 0 0 0 0 0 0 0 0 0 0 0 0 0 0 0 0 -0 -0 -0 0 0 0 -0 -0 -0 0 0 0 0 0 0 0 0 0 0 -0 0 -0 -0 0 0 0 0
0 0 0 0 0 0 0 0 0 0 0 0 0 0 0 0 0 0 0 0 0 0 -0 0 0 0 0 0 0 0 -0 0 0 0 0 0 0 0 0 0 0 0 0 0 0 0 0 0 0 0 0 0 0 0
0 0 0 0 0 0 0 0 0 0 0 0 0 0 0 0 0 0 0 -0 -0 -0 -0 0 0 0 0 0 0 0 0 0 0 0 0 0 0 0 0 0 0 0 0 0 0 0 0 0 0 0 0 0 0 0
0 0 0 0 0 0 0 0 0 0 0 0 0 0 0 0 0 -0 -0 0 0 0 0 0 0 0 0 0 0 0 0 0 0 0 0 0 0 0 0 0 0 0 0 0 0 0 0 0 0 0 0 0 0 0
0 0 0 0 0 0 0 0 0 0 -0 -0 -0 0 -0 0 0 0 0 0 0 0 0 0 0 0 0 0 0 0 0 0 0 0 0 0 0 0 0 0 0 0 0 0 0 0 0 0 0 0 0 0 0 0
0 0 0 0 0 0 0 0 0 -0 -0 -0 0 0 0 0 0 0 0 0 0 0 0 0 0 0 0 0 0 0 0 0 0 0 0 0 0 0 0 0 0 0 0 0 0 0 0 0 0 0 0 0 0 0
0 0 0 0 0 0 0 0 0 0 0 0 0 0 0 0 0 0 0 0 0 0 0 0 0 0 0 0 0 0 0 0 -0 -0 0 0 0 0 0 0 0 0 0 0 0 0 0 0 0 0 0 0 0 0
0 0 0 0 0 0 0 0 0 0 0 0 -0 -0 0 0 0 0 0 0 0 0 0 0 0 0 0 0 0 0 0 0 0 0 0 0 0 0 0 0 0 0 0 0 0 0 0 0 0 0 0 0 0 0
0 0 0 0 0 -0 -0 -0 -0 -0 -0 0 0 0 0 0 0 0 0 0 0 0 0 0 0 0 0 0 0 0 0 0 0 0 0 0 0 0 0 0 0 0 0 0 0 0 0 0 0 0 0 0 0 0
Wind_Speed_500mb
47 45 39 36 36 36 39 41 40 40 41 49 55 57 49 51 58 55 59 44 48 16 35 13 14 11 10 16 10 19 11 2 7 7 7 8 7 8 3 6 11 13 12 8 6 5 12 21 5 14 12 27 32 28
48 46 40 34 34 38 42 41 40 38 38 44 62 60 57 61 57 58 50 45 47 40 16 22 12 9 8 9 25 23 13 13 15 8 3 4 5 1 5 7 2 2 11 11 14 11 8 13 6 13 34 40 25 24
51 47 46 41 37 39 38 37 38 38 37 40 47 65 69 59 71 77 61 44 38 37 39 36 24 16 12 10 16 12 11 15 16 10 14 5 3 7 5 7 1 5 5 7 7 6 9 21 20 29 29 34 26 17
52 47 45 45 39 38 37 35 36 37 39 38 46 59 60 61 76 71 54 60 32 14 11 11 41 25 16 16 16 22 16 23 24 17 7 6 5 12 7 5 5 6 3 6 3 5 17 16 27 30 23 22 24 24
48 48 44 45 41 39 39 38 35 36 37 38 42 45 63 61 65 75 66 61 37 14 10 15 22 25 22 15 11 12 20 28 18 9 5 6 8 7 1 3 5 11 11 8 10 29 13 30 28 23 23 26 20 19
48 48 45 44 41 39 38 37 35 34 33 37 40 41 46 72 56 44 36 78 55 24 5 7 12 31 26 18 20 20 20 17 9 9 6 8 9 7 6 6 9 16 13 7 6 28 16 28 21 21 20 25 26 19
44 43 45 44 39 37 35 33 32 31 30 33 33 34 30 65 62 46 14 15 57 34 9 6 8 26 33 29 21 18 16 10 7 8 6 7 7 8 5 8 13 28 12 12 5 32 25 33 22 29 27 29 26 26
42 42 44 42 37 35 34 32 30 29 28 31 38 39 30 56 62 63 46 13 48 30 12 7 4 14 33 12 10 11 11 8 6 6 7 5 7 3 6 18 25 27 13 17 29 33 32 26 20 25 25 26 28 32
37 37 39 40 35 33 33 31 29 27 26 34 32 34 27 40 40 67 67 50 27 19 17 8 11 9 27 11 11 8 7 4 3 4 5 10 3 9 14 20 16 13 25 35 31 27 25 19 25 35 34 34 36 37
33 32 34 37 36 34 33 30 27 24 29 39 32 17 12 22 11 31 28 13 16 14 10 7 15 7 28 12 5 9 3 5 3 8 13 5 7 31 22 19 19 26 28 31 32 26 25 23 32 38 42 40 34 32
28 31 33 32 33 35 32 26 25 27 42 32 17 7 30 40 20 12 6 6 6 5 17 11 12 15 16 8 5 7 6 5 3 7 9 4 6 12 33 46 27 29 24 25 22 24 24 18 30 35 38 41 31 23
30 29 29 30 30 33 30 31 38 41 31 16 20 30 32 12 6 6 6 5 7 9 17 22 16 28 15 13 10 12 6 4 8 13 5 5 7 14 12 26 36 35 27 24 27 26 28 29 29 34 43 34 25 27
26 25 25 30 34 35 36 40 40 38 42 31 14 10 9 7 6 14 16 8 7 15 27 34 14 14 12 9 6 6 6 9 12 2 7 8 7 21 31 32 33 31 28 25 23 20 24 37 37 38 37 32 31 28
16 21 26 25 36 37 44 47 45 41 39 10 11 6 9 9 12 10 11 11 18 27 51 55 24 12 12 7 7 8 7 7 4 5 9 7 37 43 37 30 24 16 13 16 23 31 37 39 43 34 32 30 27 26
17 19 20 22 25 47 44 39 47 58 8 5 10 8 13 16 14 17 25 15 22 62 65 39 15 12 4 8 4 7 6 7 10 8 7 32 53 48 38 25 16 17 17 16 27 45 43 42 40 36 29 23 23 19
31 36 38 34 35 38 59 45 70 43 6 6 10 6 10 6 6 15 35 17 49 67 58 16 7 8 5 8 6 10 12 10 7 7 15 53 55 44 32 21 26 31 32 34 37 38 39 37 34 32 30 23 21 17
21 30 28 47 47 44 59 63 35 13 13 9 9 17 18 19 12 18 38 38 70 58 8 9 8 9 7 8 7 9 10 8 16 21 49 57 52 42 30 24 29 36 36 38 35 35 36 33 29 26 29 25 20 18
55 36 43 64 72 78 43 13 11 13 10 10 6 2 9 5 39 42 44 65 56 23 11 7 14 6 9 12 5 7 9 20 26 39 49 44 34 32 27 22 24 36 35 35 41 36 38 30 24 25 24 25 25 21
75 81 85 84 75 34 9 4 2 0 9 9 7 13 17 23 28 46 62 54 31 26 22 7 7 5 5 6 11 27 36 35 37 39 39 35 32 30 28 24 25 30 37 35 43 43 36 24 18 19 19 24 25 20
53 47 44 66 34 7 7 5 3 2 7 11 19 23 19 26 32 52 47 39 24 9 10 6 4 6 9 25 40 37 34 32 38 41 42 38 35 31 28 28 28 27 28 40 33 38 40 36 28 20 21 18 18 17
33 28 29 29 6 7 6 6 4 5 8 13 29 24 16 31 40 43 27 24 9 5 4 6 9 17 26 33 27 23 27 31 40 38 48 44 38 34 29 28 30 30 36 45 43 38 36 34 33 28 24 23 17 16
21 14 8 6 2 5 6 6 7 10 7 11 16 18 15 9 11 10 15 10 5 7 9 20 33 35 32 27 23 16 16 18 19 22 30 38 39 36 30 26 30 32 36 44 44 46 43 35 34 27 25 21 20 22
10 10 5 4 3 5 5 12 6 8 7 5 6 8 5 5 8 15 6 5 5 12 11 26 35 29 24 22 19 15 11 11 15 17 21 25 28 30 27 28 31 34 36 40 40 39 40 33 33 33 27 23 21 29
16 8 5 6 9 3 5 8 7 8 9 6 5 6 4 7 11 6 2 5 11 15 15 33 36 32 28 23 19 13 14 12 12 16 18 21 25 26 25 24 22 24 25 28 32 32 33 32 30 31 32 34 31 32
8 10 8 8 7 7 6 5 5 7 4 3 6 5 2 6 5 1 3 5 12 17 30 40 41 37 29 26 22 17 17 17 12 22 22 24 24 24 23 20 16 19 23 28 28 27 26 27 30 29 27 29 30 33
6 6 4 1 3 5 2 3 3 5 5 5 4 6 5 5 3 5 6 11 17 27 29 37 45 42 30 26 25 21 19 20 20 24 26 25 21 21 23 19 18 22 18 21 20 18 30 29 21 35 36 36 36 30
7 4 2 3 1 5 6 9 11 8 5 4 3 4 4 3 6 5 1 12 18 27 29 31 36 34 28 25 18 16 17 22 23 14 29 26 20 18 23 19 28 24 23 26 25 23 28 25 28 20 24 27 20 21
5 6 1 9 4 5 7 6 4 3 3 3 6 5 8 4 5 2 4 11 21 22 27 32 28 22 19 18 16 17 22 25 22 17 28 28 19 17 18 18 14 19 29 28 30 28 28 29 33 32 27 26 28 26
3 4 3 5 7 9 5 5 3 4 8 7 4 2 3 6 10 26 25 19 16 12 16 16 13 14 18 22 21 22 29 35 31 32 32 29 29 24 19 15 21 21 20 22 24 26 21 18 19 20 24 23 23 25
2 5 6 9 7 7 3 3 1 4 15 7 5 16 23 32 21 18 14 12 7 7 7 6 6 9 14 17 19 22 30 30 27 29 30 28 35 29 24 26 22 15 16 21 25 25 20 17 12 9 20 29 20 25
16 9 7 10 8 14 18 13 17 22 18 14 20 23 15 10 10 8 6 7 9 8 5 7 8 10 15 23 22 19 27 26 28 28 21 19 24 23 25 26 19 20 14 17 25 25 19 19 22 18 26 31 29 22
6 6 11 5 3 10 12 14 8 9 10 10 6 7 6 4 3 4 5 5 9 13 10 9 9 16 14 13 18 15 20 14 16 14 12 17 20 21 21 24 26 27 20 16 21 24 20 22 26 25 22 31 27 27
21 26 24 13 6 6 8 6 4 5 5 6 5 7 8 6 5 5 5 6 6 6 13 19 14 14 9 17 14 17 19 17 11 7 9 12 10 7 14 18 18 19 23 24 25 22 25 32 29 32 28 32 35 35
Wind_Direction_500mb
272 264 271 267 263 251 258 266 272 270 262 243 228 231 236 235 221 223 228 221 213 245 255 263 240 217 179 162 137 158 97 16 61 91 142 212 195 236 195 191 183 159 152 177 104 108 269 184 139 168 186 147 156 159
265 258 263 268 263 258 261 265 269 270 267 249 229 228 230 233 210 227 240 222 225 232 256 239 235 199 210 157 144 159 159 160 158 98 183 119 203 87 157 210 21 245 177 178 170 210 232 169 191 159 156 155 162 166
259 258 252 259 263 265 263 263 265 264 262 256 239 226 227 232 214 210 228 219 216 219 250 254 230 215 214 189 170 141 165 167 172 152 149 156 174 130 176 244 243 315 151 127 101 243 204 176 165 168 167 166 171 182
252 253 251 251 255 259 263 260 264 264 256 250 242 231 233 217 212 210 223 218 222 191 207 226 225 227 229 227 216 213 208 171 161 161 122 134 160 191 194 206 175 211 93 131 60 49 116 147 156 152 154 164 168 174
247 248 254 248 250 254 259 257 263 265 257 248 236 234 225 208 207 208 215 230 219 201 203 166 166 180 186 199 188 176 172 172 161 136 105 188 162 128 52 101 226 189 178 160 218 193 170 175 163 166 173 173 190 198
248 244 245 244 247 253 254 259 259 264 254 242 229 221 223 206 191 188 222 235 226 194 227 161 145 165 162 159 149 141 162 169 161 141 163 182 171 175 136 212 253 179 149 191 217 179 182 166 182 196 198 188 185 199
241 243 240 241 245 251 257 256 254 255 252 238 223 210 229 197 197 200 199 219 201 174 213 111 99 156 157 147 134 133 135 135 143 143 167 162 161 186 129 205 201 179 179 325 193 167 147 159 168 171 175 178 187 189
238 242 236 235 242 248 246 251 248 251 240 233 211 217 222 202 198 208 210 265 189 180 202 127 144 133 169 137 127 139 135 137 121 138 144 159 142 122 247 234 223 233 260 183 201 194 177 160 156 173 183 175 179 172
235 235 233 230 238 241 239 244 239 249 238 210 211 212 227 196 205 215 217 236 233 231 143 159 145 163 165 130 121 119 143 84 150 126 231 147 174 219 226 223 214 191 156 145 142 147 149 168 181 183 185 187 182 167
228 226 227 233 237 236 233 233 232 239 195 185 188 159 181 192 156 164 184 219 226 169 133 203 148 135 155 131 99 111 124 136 153 235 156 169 248 242 240 226 190 173 163 161 158 168 176 173 184 183 188 190 191 172
224 228 232 229 222 221 221 220 212 189 184 188 161 133 141 158 132 149 172 183 229 161 171 190 160 124 136 115 123 116 174 160 159 242 146 238 271 245 231 220 194 180 184 194 216 223 217 209 189 194 191 178 175 173
225 222 221 218 212 211 212 199 185 188 188 174 138 122 117 144 131 150 180 176 219 204 182 148 134 115 113 117 118 194 151 111 230 155 112 248 250 258 235 190 201 205 193 207 211 204 200 201 192 190 177 177 174 164
223 221 217 221 219 219 201 190 187 183 190 134 155 158 158 159 165 187 184 196 186 174 173 155 125 113 110 120 112 125 138 203 126 108 219 226 185 153 145 151 158 178 190 200 215 214 192 179 183 177 169 168 165 165
205 220 215 183 190 189 183 184 181 184 171 207 133 167 205 187 216 191 175 167 196 177 158 153 124 130 147 119 138 139 203 110 170 226 230 226 177 158 151 156 165 175 193 211 212 193 177 171 163 164 163 164 170 171
209 202 188 191 196 169 177 178 179 177 196 156 166 213 210 223 218 221 195 156 148 149 145 131 94 116 106 128 186 113 130 217 203 223 220 188 173 167 163 154 154 154 146 153 159 169 168 163 163 161 160 156 153 153
205 206 204 180 192 175 172 175 174 184 272 248 228 223 229 169 229 181 190 159 152 146 146 110 119 125 176 128 127 192 159 213 235 216 203 172 173 172 161 150 158 151 148 148 154 156 158 159 165 169 168 166 165 172
218 227 194 172 158 163 169 160 161 201 219 222 236 234 240 265 188 157 167 149 154 149 144 123 111 178 118 130 182 170 191 212 186 179 172 175 176 170 164 153 167 169 168 167 166 168 163 166 168 175 179 174 179 197
123 145 148 156 156 156 148 137 178 207 222 246 269 253 218 233 145 138 149 153 158 134 119 151 125 127 158 165 216 209 180 156 167 171 176 178 181 179 173 167 161 179 178 185 180 176 174 172 174 178 185 190 193 199
123 126 137 145 150 128 126 179 239 104 247 238 139 107 95 97 118 146 149 155 138 116 112 89 87 137 191 180 157 149 154 162 165 166 174 181 189 188 181 177 171 173 187 174 180 182 183 179 182 183 187 200 202 209
147 135 140 158 138 163 139 135 143 25 7 8 106 99 92 122 127 141 138 142 142 72 59 59 167 177 141 150 156 161 171 177 172 172 183 189 194 199 197 193 193 194 195 190 183 188 196 199 201 206 211 213 208 210
137 129 151 172 286 50 106 118 75 90 57 60 115 102 90 118 134 142 150 139 89 68 88 105 108 121 132 144 148 153 165 178 186 192 193 193 195 197 205 206 206 208 206 197 198 196 203 210 214 216 229 230 241 238
86 71 120 158 95 66 28 18 112 117 95 111 86 85 91 64 65 62 95 66 81 104 116 147 150 145 144 146 149 155 173 188 201 208 204 197 192 196 199 202 203 206 206 208 211 212 214 211 211 222 231 236 254 250
35 21 72 69 128 65 29 11 66 42 80 59 79 70 62 71 100 116 77 134 124 153 146 171 169 164 156 155 154 153 161 193 192 193 194 200 205 207 208 212 217 215 211 212 215 215 208 208 209 211 222 228 248 248
348 10 35 42 51 67 33 39 51 53 60 43 61 86 84 107 128 72 103 204 183 179 184 181 174 171 173 178 183 181 184 177 196 214 202 201 197 195 192 192 199 200 197 188 189 194 198 202 204 214 231 245 247 244
359 12 28 353 49 60 44 34 46 67 74 33 72 56 91 111 84 107 226 241 207 196 178 184 188 190 193 200 201 206 208 210 203 173 165 159 160 163 168 177 180 154 171 179 180 183 198 216 221 224 233 225 225 231
31 345 59 34 39 70 90 71 86 115 103 77 56 118 98 79 104 242 233 211 196 193 191 194 196 196 205 214 216 228 223 213 200 198 188 181 174 176 176 184 193 179 186 192 190 206 207 219 224 220 226 231 240 254
351 303 244 203 96 105 70 59 118 93 82 95 130 79 91 144 225 255 255 178 180 191 201 206 205 206 211 211 226 237 223 207 204 214 198 188 182 189 199 212 207 205 201 199 209 215 209 217 233 239 228 230 233 240
285 345 200 178 179 159 121 131 91 95 137 147 129 151 173 219 231 96 120 157 176 176 182 190 196 211 222 232 235 226 210 196 192 187 188 195 205 209 213 221 211 207 202 199 197 205 214 222 236 238 235 239 234 245
266 306 32 67 79 72 60 83 95 199 172 123 115 213 142 79 97 115 121 128 136 150 166 181 205 237 238 233 234 220 203 195 192 189 191 200 197 199 202 209 197 193 203 214 232 234 243 242 239 246 237 225 218 239
265 115 86 53 44 46 345 294 191 119 163 174 88 117 97 96 106 124 133 145 155 176 189 207 228 222 217 207 196 187 185 193 206 205 202 215 212 214 212 202 197 199 214 216 221 210 214 224 225 221 208 206 238 217
132 118 71 54 75 93 107 138 100 104 124 150 144 131 118 124 132 131 164 208 221 225 277 271 233 211 194 186 184 182 187 194 199 208 223 216 215 226 211 205 203 211 219 217 221 231 234 240 233 250 241 231 216 218
120 111 122 107 126 125 137 125 93 108 116 120 95 146 157 174 215 222 239 252 242 239 246 191 176 170 171 174 170 163 162 153 169 173 208 214 217 210 226 227 221 211 220 249 229 226 240 252 252 260 258 232 235 241
98 100 100 93 102 151 167 152 120 115 130 152 151 172 191 214 244 218 274 267 216 192 162 151 143 143 146 160 155 169 169 175 185 179 141 148 161 189 199 204 203 219 232 231 218 228 236 251 256 241 251 250 244 247
Wind_Speed_850mb
47 45 39 36 36 36 39 41 40 40 41 49 55 57 49 51 58 55 59 44 48 16 35 13 14 11 10 16 10 19 11 2 7 7 7 8 7 8 3 6 11 13 12 8 6 5 12 21 5 14 12 27 32 28
48 46 40 34 34 38 42 41 40 38 38 44 62 60 57 61 57 58 50 45 47 40 16 22 12 9 8 9 25 23 13 13 15 8 3 4 5 1 5 7 2 2 11 11 14 11 8 13 6 13 34 40 25 24
51 47 46 41 37 39 38 37 38 38 37 40 47 65 69 59 71 77 61 44 38 37 39 36 24 16 12 10 16 12 11 15 16 10 14 5 3 7 5 7 1 5 5 7 7 6 9 21 20 29 29 34 26 17
52 47 45 45 39 38 37 35 36 37 39 38 46 59 60 61 76 71 54 60 32 14 11 11 41 25 16 16 16 22 16 23 24 17 7 6 5 12 7 5 5 6 3 6 3 5 17 16 27 30 23 22 24 24
48 48 44 45 41 39 39 38 35 36 37 38 42 45 63 61 65 75 66 61 37 14 10 15 22 25 22 15 11 12 20 28 18 9 5 6 8 7 1 3 5 11 11 8 10 29 13 30 28 23 23 26 20 19
48 48 45 44 41 39 38 37 35 34 33 37 40 41 46 72 56 44 36 78 55 24 5 7 12 31 26 18 20 20 20 17 9 9 6 8 9 7 6 6 9 16 13 7 6 28 16 28 21 21 20 25 26 19
44 43 45 44 39 37 35 33 32 31 30 33 33 34 30 65 62 46 14 15 57 34 9 6 8 26 33 29 21 18 16 10 7 8 6 7 7 8 5 8 13 28 12 12 5 32 25 33 22 29 27 29 26 26
42 42 44 42 37 35 34 32 30 29 28 31 38 39 30 56 62 63 46 13 48 30 12 7 4 14 33 12 10 11 11 8 6 6 7 5 7 3 6 18 25 27 13 17 29 33 32 26 20 25 25 26 28 32
37 37 39 40 35 33 33 31 29 27 26 34 32 34 27 40 40 67 67 50 27 19 17 8 11 9 27 11 11 8 7 4 3 4 5 10 3 9 14 20 16 13 25 35 31 27 25 19 25 35 34 34 36 37
33 32 34 37 36 34 33 30 27 24 29 39 32 17 12 22 11 31 28 13 16 14 10 7 15 7 28 12 5 9 3 5 3 8 13 5 7 31 22 19 19 26 28 31 32 26 25 23 32 38 42 40 34 32
28 31 33 32 33 35 32 26 25 27 42 32 17 7 30 40 20 12 6 6 6 5 17 11 12 15 16 8 5 7 6 5 3 7 9 4 6 12 33 46 27 29 24 25 22 24 24 18 30 35 38 41 31 23
30 29 29 30 30 33 30 31 38 41 31 16 20 30 32 12 6 6 6 5 7 9 17 22 16 28 15 13 10 12 6 4 8 13 5 5 7 14 12 26 36 35 27 24 27 26 28 29 29 34 43 34 25 27
26 25 25 30 34 35 36 40 40 38 42 31 14 10 9 7 6 14 16 8 7 15 27 34 14 14 12 9 6 6 6 9 12 2 7 8 7 21 31 32 33 31 28 25 23 20 24 37 37 38 37 32 31 28
16 21 26 25 36 37 44 47 45 41 39 10 11 6 9 9 12 10 11 11 18 27 51 55 24 12 12 7 7 8 7 7 4 5 9 7 37 43 37 30 24 16 13 16 23 31 37 39 43 34 32 30 27 26
17 19 20 22 25 47 44 39 47 58 8 5 10 8 13 16 14 17 25 15 22 62 65 39 15 12 4 8 4 7 6 7 10 8 7 32 53 48 38 25 16 17 17 16 27 45 43 42 40 36 29 23 23 19
31 36 38 34 35 38 59 45 70 43 6 6 10 6 10 6 6 15 35 17 49 67 58 16 7 8 5 8 6 10 12 10 7 7 15 53 55 44 32 21 26 31 32 34 37 38 39 37 34 32 30 23 21 17
21 30 28 47 47 44 59 63 35 13 13 9 9 17 18 19 12 18 38 38 70 58 8 9 8 9 7 8 7 9 10 8 16 21 49 57 52 42 30 24 29 36 36 38 35 35 36 33 29 26 29 25 20 18
55 36 43 64 72 78 43 13 11 13 10 10 6 2 9 5 39 42 44 65 56 23 11 7 14 6 9 12 5 7 9 20 26 39 49 44 34 32 27 22 24 36 35 35 41 36 38 30 24 25 24 25 25 21
75 81 85 84 75 34 9 4 2 0 9 9 7 13 17 23 28 46 62 54 31 26 22 7 7 5 5 6 11 27 36 35 37 39 39 35 32 30 28 24 25 30 37 35 43 43 36 24 18 19 19 24 25 20
53 47 44 66 34 7 7 5 3 2 7 11 19 23 19 26 32 52 47 39 24 9 10 6 4 6 9 25 40 37 34 32 38 41 42 38 35 31 28 28 28 27 28 40 33 38 40 36 28 20 21 18 18 17
33 28 29 29 6 7 6 6 4 5 8 13 29 24 16 31 40 43 27 24 9 5 4 6 9 17 26 33 27 23 27 31 40 38 48 44 38 34 29 28 30 30 36 45 43 38 36 34 33 28 24 23 17 16
21 14 8 6 2 5 6 6 7 10 7 11 16 18 15 9 11 10 15 10 5 7 9 20 33 35 32 27 23 16 16 18 19 22 30 38 39 36 30 26 30 32 36 44 44 46 43 35 34 27 25 21 20 22
10 10 5 4 3 5 5 12 6 8 7 5 6 8 5 5 8 15 6 5 5 12 11 26 35 29 24 22 19 15 11 11 15 17 21 25 28 30 27 28 31 34 36 40 40 39 40 33 33 33 27 23 21 29
16 8 5 6 9 3 5 8 7 8 9 6 5 6 4 7 11 6 2 5 11 15 15 33 36 32 28 23 19 13 14 12 12 16 18 21 25 26 25 24 22 24 25 28 32 32 33 32 30 31 32 34 31 32
8 10 8 8 7 7 6 5 5 7 4 3 6 5 2 6 5 1 3 5 12 17 30 40 41 37 29 26 22 17 17 17 12 22 22 24 24 24 23 20 16 19 23 28 28 27 26 27 30 29 27 29 30 33
6 6 4 1 3 5 2 3 3 5 5 5 4 6 5 5 3 5 6 11 17 27 29 37 45 42 30 26 25 21 19 20 20 24 26 25 21 21 23 19 18 22 18 21 20 18 30 29 21 35 36 36 36 30
7 4 2 3 1 5 6 9 11 8 5 4 3 4 4 3 6 5 1 12 18 27 29 31 36 34 28 25 18 16 17 22 23 14 29 26 20 18 23 19 28 24 23 26 25 23 28 25 28 20 24 27 20 21
5 6 1 9 4 5 7 6 4 3 3 3 6 5 8 4 5 2 4 11 21 22 27 32 28 22 19 18 16 17 22 25 22 17 28 28 19 17 18 18 14 19 29 28 30 28 28 29 33 32 27 26 28 26
3 4 3 5 7 9 5 5 3 4 8 7 4 2 3 6 10 26 25 19 16 12 16 16 13 14 18 22 21 22 29 35 31 32 32 29 29 24 19 15 21 21 20 22 24 26 21 18 19 20 24 23 23 25
2 5 6 9 7 7 3 3 1 4 15 7 5 16 23 32 21 18 14 12 7 7 7 6 6 9 14 17 19 22 30 30 27 29 30 28 35 29 24 26 22 15 16 21 25 25 20 17 12 9 20 29 20 25
16 9 7 10 8 14 18 13 17 22 18 14 20 23 15 10 10 8 6 7 9 8 5 7 8 10 15 23 22 19 27 26 28 28 21 19 24 23 25 26 19 20 14 17 25 25 19 19 22 18 26 31 29 22
6 6 11 5 3 10 12 14 8 9 10 10 6 7 6 4 3 4 5 5 9 13 10 9 9 16 14 13 18 15 20 14 16 14 12 17 20 21 21 24 26 27 20 16 21 24 20 22 26 25 22 31 27 27
21 26 24 13 6 6 8 6 4 5 5 6 5 7 8 6 5 5 5 6 6 6 13 19 14 14 9 17 14 17 19 17 11 7 9 12 10 7 14 18 18 19 23 24 25 22 25 32 29 32 28 32 35 35
Wind_Direction_850mb
272 264 271 267 263 251 258 266 272 270 262 243 228 231 236 235 221 223 228 221 213 245 255 263 240 217 179 162 137 158 97 16 61 91 142 212 195 236 195 191 183 159 152 177 104 108 269 184 139 168 186 147 156 159
265 258 263 268 263 258 261 265 269 270 267 249 229 228 230 233 210 227 240 222 225 232 256 239 235 199 210 157 144 159 159 160 158 98 183 119 203 87 157 210 21 245 177 178 170 210 232 169 191 159 156 155 162 166
259 258 252 259 263 265 263 263 265 264 262 256 239 226 227 232 214 210 228 219 216 219 250 254 230 215 214 189 170 141 165 167 172 152 149 156 174 130 176 244 243 315 151 127 101 243 204 176 165 168 167 166 171 182
252 253 251 251 255 259 263 260 264 264 256 250 242 231 233 217 212 210 223 218 222 191 207 226 225 227 229 227 216 213 208 171 161 161 122 134 160 191 194 206 175 211 93 131 60 49 116 147 156 152 154 164 168 174
247 248 254 248 250 254 259 257 263 265 257 248 236 234 225 208 207 208 215 230 219 201 203 166 166 180 186 199 188 176 172 172 161 136 105 188 162 128 52 101 226 189 178 160 218 193 170 175 163 166 173 173 190 198
248 244 245 244 247 253 254 259 259 264 254 242 229 221 223 206 191 188 222 235 226 194 227 161 145 165 162 159 149 141 162 169 161 141 163 182 171 175 136 212 253 179 149 191 217 179 182 166 182 196 198 188 185 199
241 243 240 241 245 251 257 256 254 255 252 238 223 210 229 197 197 200 199 219 201 174 213 111 99 156 157 147 134 133 135 135 143 143 167 162 161 186 129 205 201 179 179 325 193 167 147 159 168 171 175 178 187 189
238 242 236 235 242 248 246 251 248 251 240 233 211 217 222 202 198 208 210 265 189 180 202 127 144 133 169 137 127 139 135 137 121 138 144 159 142 122 247 234 223 233 260 183 201 194 177 160 156 173 183 175 179 172
235 235 233 230 238 241 239 244 239 249 238 210 211 212 227 196 205 215 217 236 233 231 143 159 145 163 165 130 121 119 143 84 150 126 231 147 174 219 226 223 214 191 156 145 142 147 149 168 181 183 185 187 182 167
228 226 227 233 237 236 233 233 232 239 195 185 188 159 181 192 156 164 184 219 226 169 133 203 148 135 155 131 99 111 124 136 153 235 156 169 248 242 240 226 190 173 163 161 158 168 176 173 184 183 188 190 191 172
224 228 232 229 222 221 221 220 212 189 184 188 161 133 141 158 132 149 172 183 229 161 171 190 160 124 136 115 123 116 174 160 159 242 146 238 271 245 231 220 194 180 184 194 216 223 217 209 189 194 191 178 175 173
225 222 221 218 212 211 212 199 185 188 188 174 138 122 117 144 131 150 180 176 219 204 182 148 134 115 113 117 118 194 151 111 230 155 112 248 250 258 235 190 201 205 193 207 211 204 200 201 192 190 177 177 174 164
223 221 217 221 219 219 201 190 187 183 190 134 155 158 158 159 165 187 184 196 186 174 173 155 125 113 110 120 112 125 138 203 126 108 219 226 185 153 145 151 158 178 190 200 215 214 192 179 183 177 169 168 165 165
205 220 215 183 190 189 183 184 181 184 171 207 133 167 205 187 216 191 175 167 196 177 158 153 124 130 147 119 138 139 203 110 170 226 230 226 177 158 151 156 165 175 193 211 212 193 177 171 163 164 163 164 170 171
209 202 188 191 196 169 177 178 179 177 196 156 166 213 210 223 218 221 195 156 148 149 145 131 94 116 106 128 186 113 130 217 203 223 220 188 173 167 163 154 154 154 146 153 159 169 168 163 163 161 160 156 153 153
205 206 204 180 192 175 172 175 174 184 272 248 228 223 229 169 229 181 190 159 152 146 146 110 119 125 176 128 127 192 159 213 235 216 203 172 173 172 161 150 158 151 148 148 154 156 158 159 165 169 168 166 165 172
218 227 194 172 158 163 169 160 161 201 219 222 236 234 240 265 188 157 167 149 154 149 144 123 111 178 118 130 182 170 191 212 186 179 172 175 176 170 164 153 167 169 168 167 166 168 163 166 168 175 179 174 179 197
123 145 148 156 156 156 148 137 178 207 222 246 269 253 218 233 145 138 149 153 158 134 119 151 125 127 158 165 216 209 180 156 167 171 176 178 181 179 173 167 161 179 178 185 180 176 174 172 174 178 185 190 193 199
123 126 137 145 150 128 126 179 239 104 247 238 139 107 95 97 118 146 149 155 138 116 112 89 87 137 191 180 157 149 154 162 165 166 174 181 189 188 181 177 171 173 187 174 180 182 183 179 182 183 187 200 202 209
147 135 140 158 138 163 139 135 143 25 7 8 106 99 92 122 127 141 138 142 142 72 59 59 167 177 141 150 156 161 171 177 172 172 183 189 194 199 197 193 193 194 195 190 183 188 196 199 201 206 211 213 208 210
137 129 151 172 286 50 106 118 75 90 57 60 115 102 90 118 134 142 150 139 89 68 88 105 108 121 132 144 148 153 165 178 186 192 193 193 195 197 205 206 206 208 206 197 198 196 203 210 214 216 229 230 241 238
86 71 120 158 95 66 28 18 112 117 95 111 86 85 91 64 65 62 95 66 81 104 116 147 150 145 144 146 149 155 173 188 201 208 204 197 192 196 199 202 203 206 206 208 211 212 214 211 211 222 231 236 254 250
35 21 72 69 128 65 29 11 66 42 80 59 79 70 62 71 100 116 77 134 124 153 146 171 169 164 156 155 154 153 161 193 192 193 194 200 205 207 208 212 217 215 211 212 215 215 208 208 209 211 222 228 248 248
348 10 35 42 51 67 33 39 51 53 60 43 61 86 84 107 128 72 103 204 183 179 184 181 174 171 173 178 183 181 184 177 196 214 202 201 197 195 192 192 199 200 197 188 189 194 198 202 204 214 231 245 247 244
359 12 28 353 49 60 44 34 46 67 74 33 72 56 91 111 84 107 226 241 207 196 178 184 188 190 193 200 201 206 208 210 203 173 165 159 160 163 168 177 180 154 171 179 180 183 198 216 221 224 233 225 225 231
31 345 59 34 39 70 90 71 86 115 103 77 56 118 98 79 104 242 233 211 196 193 191 194 196 196 205 214 216 228 223 213 200 198 188 181 174 176 176 184 193 179 186 192 190 206 207 219 224 220 226 231 240 254
351 303 244 203 96 105 70 59 118 93 82 95 130 79 91 144 225 255 255 178 180 191 201 206 205 206 211 211 226 237 223 207 204 214 198 188 182 189 199 212 207 205 201 199 209 215 209 217 233 239 228 230 233 240
285 345 200 178 179 159 121 131 91 95 137 147 129 151 173 219 231 96 120 157 176 176 182 190 196 211 222 232 235 226 210 196 192 187 188 195 205 209 213 221 211 207 202 199 197 205 214 222 236 238 235 239 234 245
266 306 32 67 79 72 60 83 95 199 172 123 115 213 142 79 97 115 121 128 136 150 166 181 205 237 238 233 234 220 203 195 192 189 191 200 197 199 202 209 197 193 203 214 232 234 243 242 239 246 237 225 218 239
265 115 86 53 44 46 345 294 191 119 163 174 88 117 97 96 106 124 133 145 155 176 189 207 228 222 217 207 196 187 185 193 206 205 202 215 212 214 212 202 197 199 214 216 221 210 214 224 225 221 208 206 238 217
132 118 71 54 75 93 107 138 100 104 124 150 144 131 118 124 132 131 164 208 221 225 277 271 233 211 194 186 184 182 187 194 199 208 223 216 215 226 211 205 203 211 219 217 221 231 234 240 233 250 241 231 216 218
120 111 122 107 126 125 137 125 93 108 116 120 95 146 157 174 215 222 239 252 242 239 246 191 176 170 171 174 170 163 162 153 169 173 208 214 217 210 226 227 221 211 220 249 229 226 240 252 252 260 258 232 235 241
98 100 100 93 102 151 167 152 120 115 130 152 151 172 191 214 244 218 274 267 216 192 162 151 143 143 146 160 155 169 169 175 185 179 141 148 161 189 199 204 203 219 232 231 218 228 236 251 256 241 251 250 244 247